Tracking 29892 objects as of 21-Nov-2024
HD Live streaming from Space Station
objects crossing your sky now

STARLINK-4218

Track STARLINK-4218 now!
10-day predictions
STARLINK-4218 is classified as:


NORAD ID: 53025
Int'l Code: 2022-076AR
Perigee: 546.0 km
Apogee: 547.7 km
Inclination: 53.2 °
Period: 95.4 minutes
Semi major axis: 6917 km
RCS: Unknown
Launch date: July 7, 2022
Source: United States (US)
Launch site: AIR FORCE EASTERN TEST RANGE (AFETR)
Your satellite tracking list
Your tracking list is empty




NASA's NSSDC Master Catalog

Two Line Element Set (TLE):
1 53025U 22076AR  24325.24579156  .00000527  00000-0  51199-4 0  9990
2 53025  53.2164  53.9806 0001207  88.6854 271.4276 15.08844710131369
Source of the keplerian elements: AFSPC